WetterOnline ( https://www.wetteronline.de )

Wetter aktuell Lieberose

Aktuelles Wetter: Lindenberg b. Beeskow (104m)

6-stündlich | Neueste Meldungen
Ortszeit Temperatur Wetter
Mo, 04.03. 7:00 6.1° C leicht bewölkt
Mo, 04.03. 1:00 8.8° C wolkenlos
So, 03.03. 19:00 11.9° C bedeckt
So, 03.03. 13:00 14.4° C leicht bewölkt
So, 03.03. 7:00 7.6° C bewölkt
So, 03.03. 1:00 8.2° C bedeckt
Sa, 02.03. 19:00 9.9° C bewölkt
Sa, 02.03. 13:00 11.1° C bewölkt
Ortszeit Temperatur Wetter
Mo, 04.03. 12:30 9.9° C bewölkt
Mo, 04.03. 12:20 9.9° C bewölkt
Mo, 04.03. 12:10 10.3° C wolkig
Mo, 04.03. 12:00 9.9° C leicht bewölkt
Mo, 04.03. 11:50 9.9° C leicht bewölkt
Mo, 04.03. 11:40 9.7° C wolkig
Mo, 04.03. 11:30 9.8° C bedeckt
Mo, 04.03. 11:00 8.7° C bedeckt
Mo, 04.03. 10:30 7.8° C bedeckt
Mo, 04.03. 10:00 7.6° C bedeckt
Mo, 04.03. 9:30 7.2° C bedeckt
Ortszeit Relative Feuchte Sichtweite
Mo, 04.03. 7:00 95% 5.0 km
Mo, 04.03. 1:00 85% 23 km
So, 03.03. 19:00 73% 40 km
So, 03.03. 13:00 62% 55 km
So, 03.03. 7:00 97% 3.6 km
So, 03.03. 1:00 90% 9 km
Sa, 02.03. 19:00 83% 18 km
Sa, 02.03. 13:00 81% 12 km
Ortszeit Relative Feuchte Sichtweite
Mo, 04.03. 12:30 80% 9 km
Mo, 04.03. 12:20 80% -
Mo, 04.03. 12:10 79% -
Mo, 04.03. 12:00 79% 9 km
Mo, 04.03. 11:50 79% -
Mo, 04.03. 11:40 77% -
Mo, 04.03. 11:30 79% 11 km
Mo, 04.03. 11:00 84% 7 km
Mo, 04.03. 10:30 90% 5.0 km
Mo, 04.03. 10:00 91% 5.0 km
Mo, 04.03. 9:30 92% 5.0 km
Ortszeit Niederschlagsmenge Niederschlagsart
Mo, 04.03. 7:00 0.0 l/m2 in 12 Std. -
Mo, 04.03. 1:00 0.0 l/m2 in 6 Std. -
So, 03.03. 19:00 0.0 l/m2 in 12 Std. -
So, 03.03. 13:00 0.0 l/m2 in 6 Std. -
So, 03.03. 7:00 0.0 l/m2 in 12 Std. -
So, 03.03. 1:00 0.0 l/m2 in 6 Std. -
Sa, 02.03. 19:00 0.1 l/m2 in 12 Std. -
Sa, 02.03. 13:00 0.1 l/m2 in 6 Std. Sprühregen
Ortszeit Niederschlagsmenge Niederschlagsart
Mo, 04.03. 12:30 0.0 l/m2 in 30 Min -
Mo, 04.03. 12:20 keine Meldung -
Mo, 04.03. 12:10 keine Meldung -
Mo, 04.03. 12:00 0.0 l/m2 in 1 Std. -
Mo, 04.03. 11:50 keine Meldung -
Mo, 04.03. 11:40 keine Meldung -
Mo, 04.03. 11:30 0.0 l/m2 in 30 Min -
Mo, 04.03. 11:00 0.0 l/m2 in 1 Std. -
Mo, 04.03. 10:30 0.0 l/m2 in 30 Min -
Mo, 04.03. 10:00 0.0 l/m2 in 1 Std. -
Mo, 04.03. 9:30 0.0 l/m2 in 30 Min -
Ortszeit Stärke Spitze Richtung
km/h Bft. km/h Grad Sektor
Mo, 04.03. 7:00 11 2 29 60° NO
Mo, 04.03. 1:00 13 3 26 80° O
So, 03.03. 19:00 11 2 29 80° O
So, 03.03. 13:00 14 3 25 110° O
So, 03.03. 7:00 11 2 22 80° O
So, 03.03. 1:00 13 3 22 80° O
Sa, 02.03. 19:00 9 2 26 130° SO
Sa, 02.03. 13:00 9 2 17 160° S
Ortszeit Stärke Spitze Richtung
km/h Bft. km/h Grad Sektor
Mo, 04.03. 12:30 9 2 17 10° N
Mo, 04.03. 12:20 9 2 - 10° N
Mo, 04.03. 12:10 9 2 - 20° N
Mo, 04.03. 12:00 9 2 20 30° NO
Mo, 04.03. 11:50 9 2 - 30° NO
Mo, 04.03. 11:40 9 2 - 10° N
Mo, 04.03. 11:30 6 1 13 50° NO
Mo, 04.03. 11:00 7 2 22 70° O
Mo, 04.03. 10:30 9 2 20 80° O
Mo, 04.03. 10:00 11 2 22 80° O
Mo, 04.03. 9:30 11 2 22 80° O
Ortszeit Untergrenze Bedeckung Gattung
total tief tief mittel hoch
Mo, 04.03. 7:00 1800 m 4/8 4/8 - - -
Mo, 04.03. 1:00 - 0/8 0/8 - - -
So, 03.03. 19:00 1500 m 8/8 8/8 - - -
So, 03.03. 13:00 1440 m 4/8 4/8 - - -
So, 03.03. 7:00 960 m 8/8 7/8 - - -
So, 03.03. 1:00 4500 m 8/8 8/8 - - -
Sa, 02.03. 19:00 1020 m 8/8 7/8 - - -
Sa, 02.03. 13:00 330 m 7/8 7/8 - - -
Ortszeit Bedeckungsgrad in Achtel und Wolkenuntergrenze
Mo, 04.03. 12:30 7(360m)
Mo, 04.03. 12:20 7(360m)
Mo, 04.03. 12:10 6
Mo, 04.03. 12:00 4(330m)
Mo, 04.03. 11:50 4(330m)
Mo, 04.03. 11:40 6
Mo, 04.03. 11:30 8(270m) 8(2100m)
Mo, 04.03. 11:00 8(210m)
Mo, 04.03. 10:30 8(150m)
Mo, 04.03. 10:00 8(150m)
Mo, 04.03. 9:30 8(120m)
Ortszeit Luftdruck NN (hPa) Tendenz (hPa in 3 Std.)
Mo, 04.03. 7:00 1008 + 1,4
Mo, 04.03. 1:00 1006 + 0,4
So, 03.03. 19:00 1005 + 0,4
So, 03.03. 13:00 1005 - 1,0
So, 03.03. 7:00 1006 - 0,1
So, 03.03. 1:00 1007 - 0,7
Sa, 02.03. 19:00 1008 + 0,4
Sa, 02.03. 13:00 1008 + 0,1
Ortszeit Luftdruck NN (hPa) Tendenz (hPa in 3 Std.)
Mo, 04.03. 12:30 1010 + 1,0
Mo, 04.03. 12:20 1010 keine Meldung
Mo, 04.03. 12:10 1010 keine Meldung
Mo, 04.03. 12:00 1010 + 1,3
Mo, 04.03. 11:50 1010 keine Meldung
Mo, 04.03. 11:40 1010 keine Meldung
Mo, 04.03. 11:30 1010 + 1,3
Mo, 04.03. 11:00 1010 + 1,4
Mo, 04.03. 10:30 1010 + 1,5
Mo, 04.03. 10:00 1009 + 1,3
Mo, 04.03. 9:30 1009 + 1,3
Ortszeit Schneehöhe (cm)
Mo, 04.03. 7:00 0
Mo, 04.03. 1:00 0
So, 03.03. 19:00 0
So, 03.03. 13:00 0
So, 03.03. 7:00 0
So, 03.03. 1:00 0
Sa, 02.03. 19:00 0
Sa, 02.03. 13:00 0
Ortszeit Schneehöhe (cm)
Mo, 04.03. 12:30 0
Mo, 04.03. 12:20 0
Mo, 04.03. 12:10 -
Mo, 04.03. 12:00 0
Mo, 04.03. 11:50 0
Mo, 04.03. 11:40 -
Mo, 04.03. 11:30 0
Mo, 04.03. 11:00 0
Mo, 04.03. 10:30 0
Mo, 04.03. 10:00 0
Mo, 04.03. 9:30 0
Link zu dieser Seite / Seite empfehlen

Das Wetter in ...